Location: Pandora
(40.9481°N, 83.9611°W)
Time: 23:22:12
(UTC-04:00)

Nauka - Pass Details

Date: 19 September 2021
Orbit: 417 x 423 km, 51.6° (Epoch: 19 October)

Event Time Altitude Azimuth Distance (km) Brightness Sun altitude
Rises 21:46:10 0° 276° (W) 2,358 ? -24.4°
Reaches altitude 10° 21:48:42 10° 296° (WNW) 1,498 ? -24.8°
Maximum altitude 21:51:10 19° 343° (NNW) 1,080 ? -25.2°
Enters shadow 21:51:27 19° 350° (N) 1,087 ? -25.3°
